Weather History for Hawthorne, CA

Change the Weather History Date:

Wednesday, December 25, 2013

  Actual Average Record
Temperature  
Mean Temperature 64 °F -  
Max Temperature 81 °F 67 °F 83 °F (1947)
Min Temperature 48 °F 46 °F 35 °F (1949)
Growing Degree Days 14 (Base 50)    
Moisture  
Dew Point 29 °F    
Average Humidity 35    
Maximum Humidity 66    
Minimum Humidity 6    
Precipitation  
Precipitation 0.00 in - - ()
Sea Level Pressure  
Sea Level Pressure 30.15 in    
Wind  
Wind Speed 1 mph (SW)    
Max Wind Speed 9 mph    
Max Gust Speed -    
Visibility 10 miles    
Events      
Averages and records for this station are not official NWS values.
T = Trace of Precipitation, MM = Missing Value Source: NWS Daily Summary

Daily Weather History Graph

Daily Weather History Graph

Search for Another Location

Airport:

Trip Planner

Search our weather history database for the weather conditions in past years. The results will help you decide how hot, cold, wet, or windy it might be!

Date:

Astronomy

Dec. 25, 2013 Rise Set
Actual Time 6:56 AM PST 4:50 PM PST
Civil Twilight 6:28 AM PST 5:18 PM PST
Nautical Twilight 5:57 AM PST 5:49 PM PST
Astronomical Twilight 5:27 AM PST 6:20 PM PST
Moon No Moon Rise 11:43 AM PST (12/25)
Length of Visible Light 10h 49m
Length of Day
9h 54m
Waning Gibbous, 47% of the Moon is Illuminated
Dec 25
Waning Gibbous
Jan 1
New
Jan 7
First Quarter
Jan 15
Full
Jan 23
Last Quarter

Hourly Weather History & Observations

Time (PST) Temp. Dew Point Humidity Pressure Visibility Wind Dir Wind Speed Gust Speed Precip Events Conditions
12:53 AM 54.0 °F 41.0 °F 62% 30.16 in 8.0 mi Calm Calm - N/A   Clear
1:53 AM 53.1 °F 39.0 °F 59% 30.17 in 8.0 mi Calm Calm - N/A   Clear
2:53 AM 52.0 °F 37.9 °F 59% 30.16 in 9.0 mi East 4.6 mph - N/A   Clear
3:53 AM 50.0 °F 37.9 °F 63% 30.16 in 8.0 mi Calm Calm - N/A   Clear
4:53 AM 48.9 °F 37.9 °F 66% 30.16 in 9.0 mi Calm Calm - N/A   Clear
5:53 AM 48.9 °F 37.0 °F 64% 30.17 in 9.0 mi Calm Calm - N/A   Clear
6:53 AM 48.0 °F 36.0 °F 63% 30.18 in 7.0 mi Calm Calm - N/A   Clear
7:53 AM 51.1 °F 35.1 °F 54% 30.18 in 9.0 mi Calm Calm - N/A   Clear
8:53 AM 59.0 °F 33.1 °F 38% 30.19 in 10.0 mi Calm Calm - N/A   Clear
9:53 AM 66.0 °F 34.0 °F 30% 30.20 in 10.0 mi Calm Calm - N/A   Clear
10:53 AM 73.0 °F 19.9 °F 14% 30.18 in 10.0 mi Calm Calm - N/A   Clear
11:53 AM 77.0 °F 19.0 °F 11% 30.15 in 10.0 mi South 3.5 mph - N/A   Clear
12:53 PM 79.0 °F 10.9 °F 8% 30.12 in 10.0 mi South 4.6 mph - N/A   Clear
1:53 PM 81.0 °F 9.0 °F 6% 30.11 in 10.0 mi Variable 4.6 mph - N/A   Clear
2:53 PM 80.1 °F 10.0 °F 7% 30.11 in 10.0 mi WSW 9.2 mph - N/A   Clear
3:53 PM 78.1 °F 14.0 °F 9% 30.11 in 10.0 mi WSW 6.9 mph - N/A   Clear
4:53 PM 72.0 °F 28.0 °F 20% 30.11 in 10.0 mi WNW 3.5 mph - N/A   Clear
5:53 PM 66.0 °F 30.0 °F 26% 30.12 in 10.0 mi Calm Calm - N/A   Clear
6:53 PM 63.0 °F 33.1 °F 33% 30.13 in 10.0 mi Calm Calm - N/A   Clear
7:53 PM 61.0 °F 32.0 °F 34% 30.14 in 10.0 mi Calm Calm - N/A   Clear
8:53 PM 59.0 °F 32.0 °F 36% 30.15 in 10.0 mi Calm Calm - N/A   Clear
9:53 PM 61.0 °F 26.1 °F 26% 30.15 in 10.0 mi Calm Calm - N/A   Clear
10:53 PM 57.9 °F 26.1 °F 30% 30.16 in 10.0 mi Calm Calm - N/A   Clear
11:53 PM 55.0 °F 26.1 °F 33% 30.15 in 10.0 mi Calm Calm - N/A   Clear